#timestamp,LO_Frequency,Hit,StdDev 
1663369215.5,286047004.2,N
1663369235.3,286047002.9,N
1663369255.1,286047003.3,N
1663369275.9,286047003.5,N
1663369295.7,286047002.9,N
1663369315.6,286047003.3,N
1663369335.4,286047004.1,N
1663369355.2,286047004.3,N
1663369375.1,286047004.1,N
1663369376.0,286047004.1,N
1663369395.8,286047001.7,N
1663369415.7,286047001.3,N
1663369435.5,286047001.3,N
1663369455.3,286047004.3,Y
1663369475.2,286047000.7,P
1663369495.0,286047000.9,N
1663369495.9,286047000.9,N
1663369515.8,286047001.0,N
1663369535.6,286046998.7,N
1663369555.5,286046998.2,N
1663369575.3,286046999.9,N
1663369595.1,286046998.1,N
1663369615.9,286046998.3,N
1663369635.7,286046998.6,N
1663369655.5,286047001.2,N
1663369675.4,286047000.9,N
1663369695.2,286046998.2,N
1663369715.0,286046999.3,N
1663369716.0,286046999.3,N
1663369735.8,286046999.0,N
1663369755.6,286046996.8,N
1663369775.5,286046997.7,N
1663369795.3,286046998.7,N
1663369815.1,286046998.3,N
1663369835.9,286046999.4,N
1663369855.7,286046998.7,N
1663369875.5,286046997.0,N
1663369895.4,286046996.5,N
1663369915.2,286046997.5,N
1663369935.1,286046996.9,N
1663369936.0,286046996.9,N
1663369955.8,286046996.9,N
1663369975.7,286046998.8,N
1663369995.5,286047000.8,N
1663370015.3,286047001.1,N
1663370035.2,286047001.2,N
1663370055.1,286047000.9,N
1663370075.8,286047002.4,N
1663370095.7,286047002.6,N
1663370115.5,286047002.3,N
1663370135.4,286047001.9,N
1663370155.2,286046999.7,N
1663370175.0,286047001.1,N
1663370175.9,286047001.1,N
1663370195.8,286047002.3,N
1663370215.6,286047000.0,N
1663370235.5,286046999.1,N
1663370255.3,286046998.4,N
1663370275.1,286046998.5,N
1663370295.9,286046998.5,N
1663370315.7,286046998.1,N
1663370335.5,286047002.1,N
1663370355.4,286047000.1,N
1663370375.2,286047002.7,N
1663370395.1,286047002.5,N
1663370396.0,286047002.5,N
1663370415.8,286047002.4,N
1663370435.6,286047001.2,N
1663370455.5,286047000.6,N
1663370475.3,286046999.7,N
1663370495.2,286047002.4,N
1663370515.9,286046999.8,N
1663370535.7,286047002.7,N
1663370555.6,286047002.4,N
1663370575.4,286047002.2,N
1663370595.2,286047001.7,N
1663370615.1,286047001.3,N
1663370616.0,286047001.3,N
1663370635.8,286047001.4,N
1663370655.7,286047003.7,N
1663370675.5,286047001.7,N
1663370695.3,286047004.2,N
1663370715.2,286047002.2,N
1663370735.0,286047002.7,N
1663370735.9,286047002.7,N
1663370755.8,286047004.4,N
1663370775.6,286047006.0,Y
1663370795.4,286047003.1,P
1663370815.3,286047003.1,P
1663370835.1,286046999.7,N
1663370855.8,286047000.5,N
1663370875.7,286047000.3,N
1663370895.5,286047003.2,N
1663370915.4,286047003.7,N
1663370935.2,286047000.1,N
1663370955.0,286046999.7,N
1663370955.9,286046999.7,N
1663371005.8,286047001.1,E
1663371015.7,286047001.0,N
1663371035.6,286047002.7,P
1663371055.4,286047001.7,N
1663371075.2,286047001.8,N
1663371095.1,286047003.5,Y
1663371096.0,286047003.5,P
1663371115.8,286047002.7,P
1663371135.7,286047002.2,P
1663371155.5,286047001.8,N
1663371175.3,286047002.1,Y
1663371195.2,286046999.6,P
1663371215.0,286046995.4,P
1663371215.9,286046995.4,N
1663371235.7,286046995.8,N
1663371255.6,286046995.2,N
1663371275.4,286046995.5,N
1663371295.3,286046997.8,N
1663371315.1,286046999.1,N
1663371316.0,286046999.1,N
1663371335.8,286046998.3,N
1663371355.7,286047000.3,N
1663371375.5,286046998.5,N
1663371395.4,286046998.6,N
1663371415.2,286046998.5,N
1663371435.0,286046998.1,N
1663371435.9,286046998.1,N
1663371455.8,286046998.1,N
1663371475.6,286047000.4,N
1663371495.5,286047001.0,N
1663371515.3,286046999.7,N
1663371535.1,286046998.6,N
1663371555.9,286046999.5,N
1663371575.7,286046995.6,N
1663371595.5,286046995.1,N
1663371615.4,286046997.3,N
1663371635.2,286046995.8,N
1663371655.1,286046995.7,N
1663371656.0,286046995.7,N
1663371675.8,286046998.0,N
1663371695.6,286046995.6,N
1663371715.5,286046997.2,N
1663371735.3,286046995.3,N
1663371755.1,286046997.7,N
1663371775.9,286046995.9,N
1663371795.7,286046993.3,Y
1663371815.6,286046999.3,P
1663371835.4,286047001.1,N
1663371855.2,286047001.0,N
1663371875.1,286047000.2,N
1663371876.0,286047000.2,N
1663371895.8,286047001.6,N
1663371915.7,286047004.1,Y
1663371935.5,286047003.2,P
1663371955.3,286047003.7,N
1663371975.2,286047000.9,N
1663371995.9,286046998.8,N
1663372015.7,286046999.6,N
1663372035.6,286047000.1,N
1663372055.4,286046999.9,N
1663372075.3,286047000.3,N
1663372095.1,286046999.7,N
1663372096.0,286046999.7,N
1663372115.8,286047002.2,N
1663372135.7,286047000.9,N
1663372155.5,286047001.2,N
1663372175.3,286046999.9,N
1663372195.2,286047002.3,N
1663372215.0,286047002.7,N
1663372215.9,286047002.7,N
1663372235.8,286047000.2,N
1663372255.6,286047002.7,N
1663372275.4,286047002.4,N
1663372295.3,286047000.3,N
1663372315.1,286046999.9,N
1663372335.8,286047001.0,N
1663372355.7,286047002.7,N
1663372375.5,286047002.4,N
1663372395.4,286047000.2,N
1663372415.2,286047001.7,N
1663372435.0,286047004.4,Y
1663372435.9,286047004.4,P
1663372455.8,286047000.7,N
1663372475.6,286046998.6,N
1663372495.5,286047001.1,N
1663372515.3,286047000.0,N
1663372535.1,286047002.6,N
1663372555.9,286047001.6,N
1663372575.7,286047001.5,N
1663372595.5,286047002.1,N
1663372615.4,286047000.8,N
1663372635.2,286046998.4,N
1663372655.1,286047000.2,N
1663372656.0,286047000.2,N
1663372675.8,286046998.4,N
1663372695.6,286047000.5,N
1663372715.5,286046998.3,N
1663372735.3,286046998.4,N
1663372755.1,286046999.2,N
1663372775.9,286046998.9,N
1663372795.7,286046998.3,N
